Location: Passau
(48.5830°N, 13.4830°E)
Time: 19:32:45
(UTC+02:00)

Vanguard 3 - Visible Passes

Search period start: 27 July 2021 00:00
Search period end: 06 August 2021 00:00
Orbit: 508 x 3261 km, 33.4° (Epoch: 26 July)

Date Brightness Start Highest point End Pass type
(mag) Time Alt. Az. Time Alt. Az. Time Alt. Az.
27 Jul 9.9 01:27:53 10° W 01:43:23 33° SSW 01:47:42 29° S visible
27 Jul 10.7 03:50:48 10° WSW 03:52:06 11° WSW 03:52:06 11° WSW visible
27 Jul 10.2 21:55:31 10° WSW 22:13:29 49° S 22:30:05 10° ESE visible
28 Jul 10.1 00:10:27 10° W 00:28:01 42° SSW 00:36:15 27° SSE visible
28 Jul 10.3 02:28:36 10° W 02:40:18 21° SW 02:40:40 21° SW visible
28 Jul 10.2 22:53:50 10° WSW 23:11:58 47° S 23:24:57 18° SE visible
29 Jul 10.1 01:10:03 10° W 01:25:37 32° SW 01:29:24 29° SSW visible
29 Jul 10.3 21:38:01 10° WSW 21:55:33 49° S 22:12:50 10° ESE visible
29 Jul 10.2 23:52:43 10° W 00:10:09 40° SSW 00:18:13 28° SSE visible
30 Jul 10.5 02:11:01 10° W 02:22:33 20° SW 02:22:40 20° SW visible
30 Jul 10.3 22:36:18 10° WSW 22:54:02 47° SSW 23:07:07 19° SE visible
31 Jul 10.3 00:52:21 10° W 01:07:45 30° SW 01:11:34 28° SSW visible
31 Jul 10.3 21:20:41 10° WSW 21:37:36 49° S 21:55:24 10° ESE visible
31 Jul 10.2 23:35:09 10° W 23:52:12 39° SSW 00:00:32 27° SSE visible
01 Aug 10.7 01:53:39 10° W 02:04:43 19° SW 02:04:59 19° SW visible
01 Aug 10.3 22:18:55 10° WSW 22:36:05 45° SSW 22:49:33 19° SE visible
02 Aug 10.4 00:34:50 10° W 00:49:49 28° SW 00:54:01 26° SSW visible
02 Aug 10.3 21:03:31 10° WSW 21:19:40 49° S 21:37:48 10° ESE visible
02 Aug 10.4 23:17:43 10° W 23:34:13 37° SSW 23:43:05 26° SSE visible
03 Aug 10.8 01:36:33 10° W 01:46:49 17° SW 01:47:33 17° SW visible
03 Aug 10.4 22:01:41 10° W 22:18:07 44° SSW 22:32:13 18° SE visible
04 Aug 10.6 00:17:30 10° W 00:31:51 26° SW 00:36:41 24° SSW visible
04 Aug 10.4 20:46:29 10° WSW 21:01:47 47° S 21:20:02 10° ESE visible
04 Aug 10.5 23:00:29 10° W 23:16:14 35° SSW 23:25:51 23° SSE visible
05 Aug 10.9 01:19:53 10° WSW 01:28:53 15° SW 01:30:19 15° SW visible
05 Aug 10.5 21:44:37 10° W 22:00:11 42° SSW 22:15:05 16° SE visible
